User: anonymous   Login
Location: Curupao
(10.4996°N, 66.6442°W)
Time: 16:54:38
(UTC+00:00)
Language:

Resurs 01 Rocket - Orbit

View from above orbital plane
View from above orbital plane
View from above satellite
View from above satellite

Ground track
Ground track

The orbit data is extracted from the following two-line orbital elements,

1 23343U 94074B   24199.73787841  .00001282  00000-0  18384-3 0  9999
2 23343  97.7855 241.6959 0007140  24.1405  94.0620 14.78160760598577
Epoch (UTC): 17 July 2024 17:42:32
Eccentricity: 0.0007140
inclination: 97.7855°
perigee height: 630 km
apogee height: 640 km
right ascension of ascending node: 241.6959°
argument of perigee: 24.1405°
revolutions per day: 14.78160760
mean anomaly at epoch: 94.0620°
orbit number at epoch: 59857

The dashed part of the orbit path shows where the satellite is in the earth's shadow,  

DLR